Homestead, FL

3:09 PM EST on January 19, 2017 (GMT -0500)
Dade County-Homestead Regional

Weather History for KHST - January, 2013

Change the Weather History Date:

Monday, January 21, 2013

  Actual Average Record
Temperature  
Mean Temperature 72 °F -  
Max Temperature 80 °F 75 °F 85 °F (1946)
Min Temperature 64 °F 53 °F 32 °F (1961)
Cooling Degree Days 8    
Growing Degree Days 22 (Base 50)    
Moisture  
Dew Point 67 °F    
Average Humidity 83    
Maximum Humidity 92    
Minimum Humidity 71    
Precipitation  
Precipitation 0.00 in - - ()
Sea Level Pressure  
Sea Level Pressure 30.04 in    
Wind  
Wind Speed 5 mph (NW)    
Max Wind Speed 15 mph    
Max Gust Speed -    
Visibility 10 miles    
Events      
Averages and records for this station are not official NWS values.
T = Trace of Precipitation, MM = Missing Value Source: NWS Daily Summary

Daily Weather History Graph

Daily Weather History Graph

Search for Another Location

Airport or City:

Trip Planner

Search our weather history database for the weather conditions in past years. The results will help you decide how hot, cold, wet, or windy it might be!

Date:

Astronomy

Jan. 21, 2013 Rise Set
Actual Time 7:08 AM EST 5:57 PM EST
Civil Twilight 6:44 AM EST 6:22 PM EST
Nautical Twilight 6:16 AM EST 6:50 PM EST
Astronomical Twilight 5:48 AM EST 7:17 PM EST
Moon 1:38 PM EST (1/21) 2:34 AM EST (1/21)
Length of Visible Light 11h 38m
Length of Day
10h 49m
Waxing Gibbous, 75% of the Moon is Illuminated
Jan 21
Waxing Gibbous
Jan 26
Full
Feb 3
Last Quarter
Feb 10
New
Feb 17
First Quarter

Hourly Weather History & Observations

Time (EST) Temp. Heat Index Dew Point Humidity Pressure Visibility Wind Dir Wind Speed Gust Speed Precip Events Conditions
12:48 AM 69.8 °F - 66.2 °F 88% 30.05 in 10.0 mi WNW 3.5 mph - N/A   Mostly Cloudy
12:55 AM 70.0 °F - 66.0 °F 87% 30.05 in 10.0 mi WNW 3.5 mph - N/A   Mostly Cloudy
12:57 AM 69.8 °F - 66.2 °F 88% 30.06 in 10.0 mi NW 3.5 mph - N/A   Mostly Cloudy
1:55 AM 69.3 °F - 66.0 °F 89% 30.05 in 10.0 mi NNW 4.6 mph - N/A   Mostly Cloudy
2:05 AM 69.8 °F - 66.2 °F 88% 30.05 in 10.0 mi NNW 3.5 mph - N/A   Mostly Cloudy
2:29 AM 69.8 °F - 66.2 °F 88% 30.04 in 10.0 mi North 4.6 mph - N/A   Mostly Cloudy
2:55 AM 69.4 °F - 66.2 °F 89% 30.04 in 10.0 mi North 3.5 mph - N/A   Mostly Cloudy
3:55 AM 69.6 °F - 66.6 °F 90% 30.04 in 10.0 mi NNE 4.6 mph - N/A   Overcast
4:55 AM 69.3 °F - 66.6 °F 91% 30.03 in 10.0 mi Calm Calm - N/A   Mostly Cloudy
5:55 AM 69.4 °F - 66.7 °F 91% 30.02 in 10.0 mi North 4.6 mph - N/A   Scattered Clouds
6:55 AM 68.7 °F - 66.0 °F 91% 30.04 in 10.0 mi Calm Calm - N/A   Scattered Clouds
7:55 AM 69.4 °F - 66.7 °F 91% 30.06 in 10.0 mi Calm Calm - N/A   Partly Cloudy
8:55 AM 72.0 °F - 68.0 °F 87% 30.08 in 10.0 mi NE 3.5 mph - N/A   Clear
9:55 AM 76.8 °F - 68.4 °F 75% 30.09 in 10.0 mi East 5.8 mph - N/A   Clear
10:55 AM 76.6 °F - 69.3 °F 78% 30.09 in 10.0 mi ENE 4.6 mph - N/A   Partly Cloudy
11:55 AM 77.4 °F - 68.9 °F 75% 30.07 in 10.0 mi East 5.8 mph - N/A   Partly Cloudy
12:55 PM 77.4 °F - 69.6 °F 77% 30.04 in 10.0 mi NE 5.8 mph - N/A   Scattered Clouds
1:00 PM 77.0 °F - 68.0 °F 74% 30.04 in 10.0 mi NE 3.5 mph - N/A   Mostly Cloudy
1:26 PM 77.0 °F - 68.0 °F 74% 30.02 in 10.0 mi SSE 4.6 mph - N/A   Light Drizzle
1:38 PM 77.0 °F - 68.0 °F 74% 30.01 in 10.0 mi South 8.1 mph - N/A   Mostly Cloudy
1:55 PM 76.8 °F - 68.5 °F 75% 30.01 in 10.0 mi SSW 11.5 mph - 0.00 in   Mostly Cloudy
2:55 PM 80.1 °F 83.2 °F 69.8 °F 71% 30.00 in 10.0 mi SSW 10.4 mph - N/A   Clear
3:55 PM 78.3 °F - 69.1 °F 73% 30.00 in 10.0 mi SSW 9.2 mph - N/A   Partly Cloudy
4:55 PM 76.1 °F - 68.9 °F 78% 30.01 in 10.0 mi SW 10.4 mph - N/A   Partly Cloudy
5:55 PM 74.1 °F - 66.7 °F 78% 30.02 in 10.0 mi West 15.0 mph - N/A   Partly Cloudy
6:55 PM 71.2 °F - 64.9 °F 80% 30.03 in 10.0 mi West 9.2 mph - N/A   Clear
7:55 PM 69.3 °F - 64.6 °F 85% 30.04 in 10.0 mi West 8.1 mph - N/A   Clear
8:55 PM 67.8 °F - 64.4 °F 89% 30.06 in 10.0 mi West 10.4 mph - N/A   Clear
9:55 PM 66.7 °F - 63.3 °F 89% 30.06 in 10.0 mi WNW 8.1 mph - N/A   Clear
10:55 PM 65.8 °F - 62.6 °F 89% 30.06 in 10.0 mi WNW 8.1 mph - N/A   Clear
11:55 PM 64.9 °F - 62.4 °F 92% 30.06 in 10.0 mi WNW 6.9 mph - N/A   Clear